Regional Weather Roundup
Issued by NWS

Home | Current Version | Previous Version | Graphics & Text | Print | Product List | Glossary On
Versions: 1 2 3 4 5 6 7 8 9 10 11 12 13 14 15 16 17 18 19 20 21 22 23 24 25 26 27 28 29 30 31 32 33 34 35 36 37 38 39 40 41 42 43 44 45 46 47 48 49 50
000
ASUS43 KLMK 111602
RWRKY
KENTUCKY REGIONAL WEATHER ROUNDUP
NATIONAL WEATHER SERVICE LOUISVILLE KY
1100 AM EST MON DEC 11 2017

NOTE "FAIR" INDICATES FEW OR NO CLOUDS BELOW 12,000 FEET
WITH NO SIGNIFICANT WEATHER AND/OR OBSTRUCTIONS TO VISIBILITY.

KYZ001>023-026-027-061>063-070>075-111700-
WESTERN AND SOUTH CENTRAL KENTUCKY

CITY           SKY/WX    TMP DP  RH WIND       PRES   REMARKS
PADUCAH        SUNNY     48  29  47 SW10      30.06F
HENDERSON      MOSUNNY   41  33  73 S9        30.04F
OWENSBORO      MOSUNNY   43  33  68 SW9       30.06F
HOPKINSVILLE   SUNNY     49  29  46 SW10      30.09S
BOWLING GREEN  CLOUDY    45  31  58 SW10      30.09F
GLASGOW        NOT AVBL
$$

KYZ024-025-028>034-038-045-046-053-111700-
NORTH CENTRAL KENTUCKY

CITY           SKY/WX    TMP DP  RH WIND       PRES   REMARKS
LOUISVILLE/SDF MOSUNNY   41  28  60 SW3       30.04F
LOUISVILLE/LOU MOSUNNY   39  29  67 S6        30.05F WCI  35
FORT KNOX      CLOUDY    42  28  56 S12       30.03F
$$

KYZ035>037-039>044-047>052-055>060-089>105-111700-
NORTHEAST KENTUCKY

CITY           SKY/WX    TMP DP  RH WIND       PRES   REMARKS
LEXINGTON      CLOUDY    40  27  59 SW10      30.04F WCI  33
COVINGTON      PTSUNNY   34  26  72 S9        30.01F WCI  27
FRANKFORT      CLOUDY    41  26  55 S9        30.03F
$$

KYZ054-064>069-076>088-106>120-111700-
SOUTHEAST KENTUCKY

CITY           SKY/WX    TMP DP  RH WIND       PRES   REMARKS
JACKSON        SUNNY     41  26  55 VRB3      30.06F
LONDON         SUNNY     43  26  51 SW7       30.08F
SOMERSET       CLOUDY    41  28  60 S5        30.10F
MIDDLESBORO    SUNNY     42  27  55 SE6       30.11F
MONTICELLO     SUNNY     46  29  51 VRB6      30.10F
$$





USA.gov is the U.S. government's official web portal to all federal, state and local government web resources and services.